Location: Newark
(58.8333°N, 23.5833°E)
Time: 08:08:27
(UTC+00:00)

A-11 Canister half - Pass Details

Date: 23 November 2019
Orbit: 1515 x 1685 km, 47.2° (Epoch: 08 December)

Event Time Altitude Azimuth Distance (km) Brightness Sun altitude
Rises 18:38:13 0° 261° (W) 4,920 12.4 -35.9°
Reaches altitude 10° 18:41:35 10° 255° (WSW) 3,942 11.7 -36.3°
Enters shadow 18:50:08 42° 199° (SSW) 2,269 9.7 -37.4°
Maximum altitude 18:50:49 42° 189° (S) 2,256 - -37.4°
Drops below altitude 10° 19:00:02 10° 124° (SE) 3,926 - -38.5°
Sets 19:03:22 0° 118° (ESE) 4,898 - -38.9°
